Regional Weather Roundup
Issued by NWS Sioux Falls, SD

Home | Current Version | Previous Version | Text Only | Print | Product List | Glossary On
Versions: 1 2 3 4 5 6 7 8 9 10 11 12 13 14 15 16 17 18 19 20 21 22 23 24 25 26 27 28 29 30 31 32 33 34 35 36 37 38 39 40 41 42 43 44 45 46 47 48 49 50
000
ASUS43 KFSD 051110
RWRFSD

WEATHER ROUNDUP FOR SE SOUTH DAKOTA/SW MINNESOTA/NW IOWA
NATIONAL WEATHER SERVICE SIOUX FALLS SD
600 AM CDT WED AUG 05 2015

NOTE: "FAIR" INDICATES FEW OR NO CLOUDS BELOW 12,000 FEET WITH NO
SIGNIFICANT WEATHER AND OR OBSTRUCTIONS TO VISIBILITY.


SDZ038>040-050-052>070-051200-
SOUTHEAST SOUTH DAKOTA

CITY           SKY/WX    TMP DP  RH WIND       PRES   REMARKS
BROOKINGS      MOCLDY    59  54  82 CALM      30.06R
CHAMBERLAIN    PTCLDY    62  62  99 SE6       30.00R
HURON          CLOUDY   N/A N/A N/A SE7       30.00S
MADISON        FAIR      57  57 100 SE6       30.04S
MITCHELL       MOCLDY    61  60  97 SE5       30.02R
SIOUX FALLS    MOCLDY    60  55  83 E7        30.03S
WINNER         CLOUDY    66  63  90 SE7       30.00R
YANKTON        CLOUDY    64  63  94 E6        30.00R
$$

MNZ071-072-080-081-089-090-097-098-051200-
SOUTHWEST MINNESOTA

CITY           SKY/WX    TMP DP  RH WIND       PRES   REMARKS
FAIRMONT       PTCLDY    54  46  76 CALM      30.04S
JACKSON        MOCLDY    55  54  94 CALM      30.05S
LUVERNE        MOCLDY    59  54  82 CALM      30.05R
MARSHALL       MOCLDY    55  52  88 CALM      30.04F
MONTEVIDEO     CLEAR     52  48  87 CALM      30.05S
PIPESTONE      MOCLDY    59  54  82 E3        30.05R
REDWOOD FALLS  PTCLDY    56  54  93 CALM      30.03F
TRACY          MOCLDY    63  55  77 S5        30.04S
WINDOM         MOCLDY    54  52  94 CALM      30.04F
WORTHINGTON    MOCLDY    54  48  82 CALM      30.05R
$$

IAZ001>003-012>014-020>022-031-032-NEZ013-014-SDZ071-051200-
NORTHWEST IOWA

CITY           SKY/WX    TMP DP  RH WIND       PRES   REMARKS
CHEROKEE       PTCLDY    60  60  99 CALM      30.02S
DENISON        CLOUDY    66  64  94 E6        29.98R
ESTHERVILLE    MOCLDY    53  51  93 E3        30.04R
LE MARS        CLOUDY    66  63  88 NE5       30.02S
ORANGE CITY    MOCLDY    59  55  88 E3        30.03S
SHELDON        PTCLDY    57  55  94 E3        30.03R
SIOUX CITY     CLOUDY    68  63  84 NE6       30.00S
SPENCER        PTCLDY    58  53  84 E5        30.04R
STORM LAKE     MOCLDY    61  59  94 E5        30.04R
$$

ABBREVIATIONS USED IN REMARKS
   TC - TEMPERATURE IN CELSIUS
  WCI - WIND CHILL INDEX
   HX - HEAT INDEX
  VSB - VISIBILITY



USA.gov is the U.S. government's official web portal to all federal, state and local government web resources and services.